Orbital Elements at Epoch 2459200.5 (2020-Dec-17.0) TDB
Reference: JPL 20 (heliocentric ecliptic J2000)
Element | Value | Uncertainty (1-sigma) | Units |
e | .1960600117628523 | 4.1348e-08 | |
a | 2.626699862017202 | 1.026e-08 | au |
q | 2.111709056172627 | 1.0801e-07 | au |
i | 12.25523084383549 | 3.9047e-06 | deg |
node | 13.63526381426954 | 1.792e-05 | deg |
peri | 340.66151401 | 2.0277e-05 | deg |
M | 97.32087492658292 | 9.2042e-06 | deg |
tp | 2458780.143654556245 (2019-Oct-23.64365456) | 3.8952e-05 | TDB |
period | 1554.941675913941 4.26 | 9.1102e-06 2.494e-08 | d yr |
n | .2315199377419763 | 1.3564e-09 | deg/d |
Q | 3.141690667861778 | 1.2271e-08 | au |
|
| | Orbit Determination Parameters
Additional Information
|